Weather History for Centralia, IL

Change the Weather History Date:

Tuesday, January 14, 2014

  Actual Average (KSLO) Record (KSLO)
Temperature  
Mean Temperature 34 °F -  
Max Temperature 43 °F 35 °F 60 °F (1959)
Min Temperature 26 °F 19 °F -9 °F (1964)
Degree Days  
Heating Degree Days 30    
Moisture  
Dew Point 27 °F    
Average Humidity 73    
Maximum Humidity 96    
Minimum Humidity 48    
Precipitation  
Precipitation 0.00 in - - ()
Sea Level Pressure  
Sea Level Pressure 29.90 in    
Wind  
Wind Speed 7 mph (WSW)    
Max Wind Speed 22 mph    
Max Gust Speed 32 mph    
Visibility 9 miles    
Events Rain    
Averages and records for this station are not official NWS values.
T = Trace of Precipitation, MM = Missing Value Source: NWS Daily Summary

Daily Weather History Graph

Daily Weather History Graph

Search for Another Location

Airport:

Trip Planner

Search our weather history database for the weather conditions in past years. The results will help you decide how hot, cold, wet, or windy it might be!

Date:

Astronomy

Jan. 14, 2014 Rise Set
Actual Time 7:12 AM CST 4:58 PM CST
Civil Twilight 6:43 AM CST 5:27 PM CST
Nautical Twilight 6:11 AM CST 6:00 PM CST
Astronomical Twilight 5:39 AM CST 6:32 PM CST
Moon 4:03 PM CST (1/14) 5:47 AM CST (1/14)
Length of Visible Light 10h 43m
Length of Day
9h 45m
Waxing Gibbous, 98% of the Moon is Illuminated
Jan 14
Waxing Gibbous
Jan 15
Full
Jan 23
Last Quarter
Jan 30
New
Feb 6
First Quarter

Hourly Weather History & Observations

Time (CST) Temp. Windchill Dew Point Humidity Pressure Visibility Wind Dir Wind Speed Gust Speed Precip Events Conditions
12:15 AM 32.0 °F - 30.2 °F 93% 29.87 in 10.0 mi Calm Calm - N/A   Clear
12:35 AM 29.8 °F - 28.0 °F 93% 29.87 in 7.0 mi Calm Calm - N/A   Clear
12:55 AM 29.5 °F - 27.9 °F 94% 29.87 in 7.0 mi Calm Calm - N/A   Clear
1:15 AM 28.8 °F - 27.3 °F 94% 29.87 in 5.0 mi Calm Calm - N/A   Clear
1:35 AM 28.0 °F - 26.6 °F 94% 29.87 in 5.0 mi Calm Calm - N/A   Clear
1:55 AM 27.5 °F 22.2 °F 26.2 °F 95% 29.87 in 5.0 mi SSE 4.6 mph - N/A   Clear
2:15 AM 27.1 °F 21.8 °F 25.7 °F 94% 29.87 in 5.0 mi South 4.6 mph - N/A   Clear
2:35 AM 28.6 °F 24.8 °F 27.3 °F 95% 29.87 in 5.0 mi South 3.5 mph - N/A   Clear
2:55 AM 28.2 °F - 27.0 °F 95% 29.87 in 5.0 mi Calm Calm - N/A   Clear
3:15 AM 27.7 °F - 26.4 °F 95% 29.86 in 4.0 mi Calm Calm - N/A   Clear
3:35 AM 26.6 °F 22.6 °F 25.5 °F 96% 29.85 in 4.0 mi SSE 3.5 mph - N/A   Clear
3:55 AM 26.8 °F 21.4 °F 25.5 °F 95% 29.85 in 5.0 mi SSE 4.6 mph - N/A   Clear
4:15 AM 28.9 °F 23.9 °F 27.7 °F 95% 29.84 in 5.0 mi SE 4.6 mph - N/A   Clear
4:35 AM 29.1 °F 24.1 °F 27.7 °F 94% 29.84 in 5.0 mi SSE 4.6 mph - N/A   Clear
4:55 AM 30.0 °F 25.2 °F 28.6 °F 94% 29.83 in 5.0 mi SSE 4.6 mph - N/A   Clear
5:15 AM 30.0 °F 24.1 °F 28.6 °F 94% 29.83 in 7.0 mi SE 5.8 mph - N/A   Clear
5:35 AM 31.5 °F 24.2 °F 29.8 °F 94% 29.82 in 7.0 mi SSE 8.1 mph - N/A   Clear
5:55 AM 31.1 °F 23.7 °F 29.3 °F 93% 29.81 in 7.0 mi SE 8.1 mph - N/A   Clear
6:15 AM 31.6 °F 25.1 °F 29.3 °F 91% 29.80 in 7.0 mi SE 6.9 mph - N/A   Clear
6:35 AM 32.0 °F 24.2 °F 29.8 °F 92% 29.80 in 10.0 mi SSE 9.2 mph - N/A   Clear
6:55 AM 32.0 °F 24.2 °F 29.3 °F 90% 29.80 in 10.0 mi SSE 9.2 mph - N/A   Clear
7:15 AM 32.0 °F 23.6 °F 28.9 °F 88% 29.80 in 10.0 mi SSE 10.4 mph - N/A   Clear
7:35 AM 32.5 °F 24.2 °F 29.1 °F 87% 29.80 in 10.0 mi SSE 10.4 mph - N/A   Clear
7:55 AM 34.0 °F 25.0 °F 29.3 °F 83% 29.79 in 10.0 mi SSE 12.7 mph - N/A   Clear
8:15 AM 35.6 °F 26.2 °F 29.5 °F 78% 29.79 in 10.0 mi SSE 15.0 mph 18.4 mph N/A   Clear
8:35 AM 37.0 °F 28.5 °F 29.8 °F 75% 29.79 in 10.0 mi South 13.8 mph 19.6 mph N/A   Clear
8:55 AM 37.9 °F 29.2 °F 30.0 °F 73% 29.80 in 10.0 mi South 15.0 mph - N/A   Mostly Cloudy
9:15 AM 37.9 °F 30.5 °F 30.4 °F 74% 29.81 in 10.0 mi SSW 11.5 mph - N/A   Mostly Cloudy
9:35 AM 39.9 °F 32.5 °F 30.4 °F 69% 29.80 in 10.0 mi SSW 12.7 mph - N/A   Mostly Cloudy
9:55 AM 41.2 °F 33.7 °F 30.2 °F 65% 29.81 in 10.0 mi SSW 13.8 mph 18.4 mph N/A   Scattered Clouds
10:15 AM 42.4 °F 35.3 °F 30.7 °F 63% 29.82 in 10.0 mi SW 13.8 mph 19.6 mph N/A   Mostly Cloudy
10:35 AM 43.0 °F 35.4 °F 31.1 °F 63% 29.82 in 10.0 mi SW 16.1 mph 21.9 mph N/A   Mostly Cloudy
10:55 AM 43.7 °F 35.4 °F 30.2 °F 59% 29.83 in 10.0 mi WSW 19.6 mph 23.0 mph N/A   Mostly Cloudy
11:15 AM 43.7 °F 36.6 °F 30.7 °F 60% 29.83 in 10.0 mi West 15.0 mph 21.9 mph N/A   Scattered Clouds
11:35 AM 42.4 °F 34.4 °F 30.9 °F 64% 29.84 in 10.0 mi West 17.3 mph - N/A Rain Light Rain
11:55 AM 42.3 °F 33.3 °F 31.8 °F 67% 29.84 in 10.0 mi West 20.7 mph 27.6 mph N/A Rain Light Rain
12:15 PM 40.6 °F 32.0 °F 33.3 °F 75% 29.84 in 7.0 mi WNW 17.3 mph 28.8 mph N/A Rain Light Rain
12:35 PM 41.0 °F 33.1 °F 34.0 °F 76% 29.84 in 10.0 mi WNW 15.0 mph 19.6 mph N/A   Overcast
12:55 PM 41.7 °F 34.8 °F 34.3 °F 75% 29.83 in 10.0 mi WNW 12.7 mph - N/A   Mostly Cloudy
1:15 PM 41.9 °F 35.0 °F 34.5 °F 75% 29.85 in 10.0 mi WNW 12.7 mph - N/A   Scattered Clouds
1:35 PM 42.8 °F 36.2 °F 34.7 °F 73% 29.85 in 10.0 mi WNW 12.7 mph - N/A   Mostly Cloudy
1:55 PM 43.2 °F 36.6 °F 34.2 °F 71% 29.85 in 10.0 mi WNW 12.7 mph - N/A   Scattered Clouds
2:15 PM 43.7 °F 36.3 °F 32.7 °F 65% 29.85 in 10.0 mi WNW 16.1 mph - N/A   Clear
2:35 PM 43.7 °F 36.6 °F 31.8 °F 63% 29.87 in 10.0 mi WNW 15.0 mph 20.7 mph N/A   Clear
2:55 PM 42.6 °F 34.6 °F 24.1 °F 48% 29.89 in 10.0 mi NW 17.3 mph 27.6 mph N/A   Clear
3:15 PM 41.9 °F 34.3 °F 26.1 °F 53% 29.90 in 10.0 mi NW 15.0 mph 19.6 mph N/A   Clear
3:35 PM 41.9 °F 35.4 °F 27.7 °F 57% 29.91 in 10.0 mi NW 11.5 mph 17.3 mph N/A   Clear
3:55 PM 41.5 °F 35.9 °F 28.8 °F 60% 29.92 in 10.0 mi WNW 9.2 mph - N/A   Clear
4:15 PM 41.7 °F 36.7 °F 28.8 °F 60% 29.93 in 10.0 mi West 8.1 mph - N/A   Clear
4:35 PM 41.4 °F 34.3 °F 27.3 °F 57% 29.94 in 10.0 mi WNW 12.7 mph - N/A   Clear
4:55 PM 40.1 °F 33.2 °F 24.8 °F 54% 29.96 in 10.0 mi WNW 11.5 mph 17.3 mph N/A   Clear
5:15 PM 39.2 °F 33.6 °F 24.4 °F 56% 29.97 in 10.0 mi WNW 8.1 mph 16.1 mph N/A   Scattered Clouds
5:35 PM 37.4 °F 32.1 °F 25.0 °F 61% 29.98 in 10.0 mi West 6.9 mph - N/A   Scattered Clouds
5:55 PM 36.9 °F 30.7 °F 25.3 °F 63% 29.99 in 10.0 mi WNW 8.1 mph - N/A   Clear
6:15 PM 37.6 °F 30.5 °F 25.2 °F 61% 30.00 in 10.0 mi WNW 10.4 mph 16.1 mph N/A   Mostly Cloudy
6:35 PM 36.9 °F 30.7 °F 25.3 °F 63% 30.00 in 10.0 mi NW 8.1 mph - N/A   Mostly Cloudy
6:55 PM 35.6 °F 29.9 °F 25.5 °F 67% 30.01 in 10.0 mi NW 6.9 mph - N/A   Scattered Clouds
7:15 PM 34.5 °F 30.4 °F 25.7 °F 70% 30.02 in 10.0 mi WNW 4.6 mph - N/A   Scattered Clouds
7:35 PM 33.4 °F 29.1 °F 25.7 °F 73% 30.02 in 10.0 mi WNW 4.6 mph - N/A   Clear
7:55 PM 34.7 °F 23.7 °F 24.4 °F 66% 30.03 in 10.0 mi WNW 19.6 mph 26.5 mph N/A   Clear
8:15 PM 33.8 °F 21.9 °F 21.6 °F 61% 30.05 in 10.0 mi WNW 21.9 mph 32.2 mph N/A   Clear
8:35 PM 32.9 °F 22.8 °F 18.7 °F 56% 30.05 in 10.0 mi NW 15.0 mph 28.8 mph N/A   Mostly Cloudy
8:55 PM 32.2 °F 22.7 °F 18.9 °F 58% 30.06 in 10.0 mi WNW 12.7 mph 25.3 mph N/A   Overcast
9:15 PM 31.8 °F 21.4 °F 18.5 °F 58% 30.07 in 10.0 mi WNW 15.0 mph 20.7 mph N/A   Scattered Clouds
9:35 PM 31.1 °F 20.1 °F 17.6 °F 57% 30.06 in 10.0 mi WNW 16.1 mph - N/A   Clear
9:55 PM 30.2 °F 20.2 °F 15.8 °F 55% 30.06 in 10.0 mi WNW 12.7 mph - N/A   Clear
10:15 PM 30.0 °F 19.5 °F 15.8 °F 56% 30.06 in 10.0 mi WNW 13.8 mph 18.4 mph N/A   Clear
10:35 PM 29.3 °F 19.6 °F 16.2 °F 58% 30.06 in 10.0 mi WNW 11.5 mph - N/A   Clear
10:55 PM 29.3 °F 21.5 °F 16.2 °F 58% 30.05 in 10.0 mi WNW 8.1 mph - N/A   Mostly Cloudy
11:15 PM 29.3 °F 19.6 °F 15.8 °F 57% 30.05 in 10.0 mi West 11.5 mph - N/A   Scattered Clouds
11:35 PM 29.3 °F 19.1 °F 14.5 °F 54% 30.05 in 10.0 mi WNW 12.7 mph 23.0 mph N/A   Clear
11:55 PM 29.1 °F 18.9 °F 14.5 °F 55% 30.05 in 10.0 mi West 12.7 mph - N/A   Scattered Clouds